Regional Weather Roundup
Issued by NWS

Home | Current Version | Previous Version | Graphics & Text | Print | Product List | Glossary On
Versions: 1 2 3 4 5 6 7 8 9 10 11 12 13 14 15 16 17 18 19 20 21 22 23 24 25 26 27 28 29 30 31 32 33 34 35 36 37 38 39 40 41 42 43 44 45 46 47 48 49 50
000
ASUS43 KMPX 210701
RWRMN
WEATHER ROUNDUP FOR MINNESOTA
NATIONAL WEATHER SERVICE TWIN CITIES/CHANHASSEN MN
200 AM CDT TUE APR 21 2015


NOTE: "FAIR" INDICATES FEW OR NO CLOUDS BELOW 12,000 FEET WITH NO
SIGNIFICANT WEATHER AND/OR OBSTRUCTIONS TO VISIBILITY. N/A MEANS
CURRENT SKY AND/OR WEATHER CONDITIONS ARE NOT AVAILABLE.

MNZ060>063-068>070-210800-
   Twin Cities Metro

CITY           SKY/WX    TMP DP  RH WIND       PRES   REMARKS
TWIN CITIES    CLOUDY    36  27  69 NW21G30   29.54S
ST PAUL        CLOUDY    36  29  75 W14       29.54F
CRYSTAL        CLOUDY    37  25  61 NW20      29.52F
BLAINE         CLOUDY    37  28  70 W16       29.51F
LAKEVILLE      FLURRIES  34  30  86 NW13      29.54F WCI  25
EDEN PRAIRIE   FLURRIES  37  26  64 NW15G32   29.53F
SOUTH ST PAUL  CLOUDY    36  30  79 W12       29.53S
LAKE ELMO      FLURRIES  34  32  93 W8        29.52F WCI  27
$$
MNZ001>005-007-008-013>017-022>024-027-028-210800-
   Northwest Minnesota

CITY           SKY/WX    TMP DP  RH WIND       PRES   REMARKS
BEMIDJI        FLURRIES  30  26  85 NW16G24   29.48F WCI  18
HALLOCK        FLURRIES  34  30  86 NW22G30   29.59F WCI  22
ROSEAU         CLOUDY    32  27  80 NW16      29.52S WCI  21
WARROAD        CLOUDY    30  27  86 NW17      29.49S WCI  18
THIEF RVR FALL CLOUDY    32  28  86 NW20      29.56S WCI  20
CROOKSTON      CLOUDY    34  30  86 N21       29.60F WCI  22
FOSSTON        CLOUDY    28  27  93 NW18G24   29.55S WCI  16
DETROIT LAKES  MOCLDY    32  28  86 NW17G26   29.57F WCI  21
MOORHEAD       CLOUDY    34  25  69 NW20G30   29.64S WCI  22
PARK RAPIDS    CLOUDY    35  23  61 NW18      29.50S WCI  24
MAHNOMEN       CLOUDY    31  27  85 NW21G26   29.56F WCI  18
$$
MNZ006-009>011-018-025>026-210800-
   North Central Minnesota

CITY           SKY/WX    TMP DP  RH WIND       PRES   REMARKS
BAUDETTE       LGT SNOW  31  29  92 NW22G28   29.43S FOG     WCI  18
FLAG ISLAND    CLOUDY    32  28  86 NW21      29.46S WCI  20
INTL FALLS     LGT SNOW  31  29  92 NW10      29.37S FOG     WCI  22
WASKISH        CLOUDY    30  28  93 W14G24    29.45S WCI  20
BIG FORK       LGT SNOW  30  28  93 W6        29.40S WCI  24
LONGVILLE      CLOUDY    30  27  86 NW12G25   29.46S WCI  21
GRAND RAPIDS   CLOUDY    30  25  80 NW20G29   29.41S WCI  18
CRANE LAKE     CLOUDY    30  30 100 NW2       29.34S
ORR            LGT SNOW  30  28  93 W12       29.32S WCI  21
COOK           LGT SNOW  30  28  93 W14       29.34F WCI  20
$$
MNZ012-019>021-037-210800-
   Northeast Minnesota

CITY           SKY/WX    TMP DP  RH WIND       PRES   REMARKS
DULUTH         LGT SNOW  32  28  85 W17G25    29.34S FOG     WCI  21
ELY            LGT SNOW  30  30 100 W8        29.29S WCI  23
HIBBING        LGT SNOW  31  26  82 NW12G23   29.36F WCI  22
EVELETH        MIX PCPN  32  32 100 W14G20    29.35F WCI  22
DULUTH HARBOR  CLOUDY    36  30  80 W18G26    29.38F
TWO HARBORS    CLOUDY    36  30  80 W10G18    29.30S
SILVER BAY     CLOUDY    36  28  75 W9        29.28R
GRAND MARAIS     N/A     36  31  82 W3        29.24S
G MARAIS ARPRT LGT SNOW  30  27  86 NW3       29.20S
$$
MNZ029>031-032-039>041-046>048-054>057-064-210800-
   West Central Minnesota

CITY           SKY/WX    TMP DP  RH WIND       PRES   REMARKS
FERGUS FALLS   CLOUDY    32  25  74 NW24      29.63F WCI  19
WHEATON        CLOUDY    34  27  75 W17G24    29.67S WCI  23
MORRIS         CLOUDY    34  28  80 NW16      29.62S WCI  23
ALEXANDRIA     CLOUDY    33  27  78 NW20G32   29.58S WCI  21
ELBOW LAKE     CLOUDY    32  29  88 NW22G31   29.61R WCI  20
WADENA         CLOUDY    30  25  80 NW12G28   29.53S WCI  21
GLENWOOD       CLOUDY    34  28  80 NW16G28   29.58S WCI  23
APPLETON       CLEAR     36  27  69 NW14G21   29.65S
BENSON         CLOUDY    34  30  86 N13       29.62F WCI  25
ORTONVILLE     MOCLDY    37  27  65 NW18      29.66S
MADISON        PTCLDY    36  27  69 W8        29.67S
WILLMAR        CLOUDY    36  32  87 NW13      29.61F
$$
MNZ033>034-036-042>043-049>051-058-059-210800-
   Central Minnesota

CITY           SKY/WX    TMP DP  RH WIND       PRES   REMARKS
ST CLOUD       CLOUDY    34  25  69 NW17      29.52F WCI  23
SAUK CENTRE    CLOUDY    33  27  80 NW15      29.56S WCI  23
PAYNESVILLE    CLOUDY    32  26  80 W18G24    29.58S WCI  20
AITKIN         FLURRIES  34  27  75 W7G16     29.44S WCI  28
PINE RIVER     FLURRIES  30  27  86 W12G18    29.52F WCI  21
BRAINERD       MOCLDY    31  25  78 NW12G20   29.49F WCI  22
STAPLES        CLOUDY    30  25  80 NW14      29.52S WCI  20
LONG PRAIRIE   CLOUDY    32  25  74 W21G29    29.54S WCI  20
LITTLE FALLS   CLOUDY    34  27  75 NW10G21   29.52S WCI  26
LITCHFIELD     CLOUDY    37  30  75 NW12G21   29.58S
BUFFALO        MOCLDY    36  26  67 W16G23    29.55F
MAPLE LAKE     MOCLDY    36  28  74 W15       29.55F
$$
MNZ037-044-045-052-053-210800-
   East Central Minnesota

CITY           SKY/WX    TMP DP  RH WIND       PRES   REMARKS
PRINCETON      CLOUDY    36  27  69 W18       29.51S
MORA           MOCLDY    34  28  80 W10       29.49S WCI  26
CAMBRIDGE      CLOUDY    36  27  69 W12G17    29.48S
RUSH CITY      CLOUDY    33  29  87 W12       29.48S WCI  24
MOOSE LAKE     CLOUDY    32  28  86 NW13G22   29.41S WCI  22
HINCKLEY       CLOUDY    34  32  93 W10       29.45F WCI  26
CLOQUET        CLOUDY    32  27  80 W17G23    29.38S WCI  21
MCGREGOR       CLOUDY    32  30  93 W10G21    29.44S WCI  24
$$
MNZ071>073-080-081-089-090-097-098-210800-
   Southwest Minnesota

CITY           SKY/WX    TMP DP  RH WIND       PRES   REMARKS
MONTEVIDEO     CLEAR     36  28  75 N18G25    29.65S
GRANITE FALLS  CLEAR     33  28  81 W17       29.66S WCI  22
CANBY          CLEAR     34  27  76 W12       29.69S WCI  25
MARSHALL       CLEAR     34  21  60 NW14      29.67R WCI  24
REDWOOD FALLS  PTCLDY    35  29  78 W8        29.63F WCI  29
OLIVIA         MOCLDY    32  30  93 NW7       29.61F WCI  26
PIPESTONE      CLEAR     28  25  86 W7        29.69S WCI  21
WINDOM         CLEAR     34  27  75 W14       29.66S WCI  24
WORTHINGTON    CLEAR     34  21  60 W13       29.70S WCI  25
JACKSON        CLEAR     36  27  69 W13       29.67S
TRACY          CLEAR     35  27  72 W9        29.67S WCI  28
SLAYTON        CLEAR     32  25  76 W10       29.69S WCI  24
$$
MNZ065>067-074>077-082>085-091>093-210800-
   South Central Minnesota

CITY           SKY/WX    TMP DP  RH WIND       PRES   REMARKS
MANKATO        MOCLDY    36  27  69 NW20G25   29.60F
NEW ULM        PTCLDY    36  28  75 NW13      29.62F
ST JAMES       PTCLDY    36  28  75 W15       29.65S
FAIRMONT       PTCLDY    37  25  60 W16       29.64F
GLENCOE        CLOUDY    37  30  74 NW13G24   29.58S
FARIBAULT      CLOUDY    37  30  75 W17       29.57S
OWATONNA       MOCLDY    36  30  80 W17G26    29.58S
WASECA         CLOUDY    37  32  81 W20G26    29.61S
ALBERT LEA     CLOUDY    37  30  75 W16G25    29.60S
$$
MNZ078>079-086>088-094>096-210800-
   Southeast Minnesota

CITY           SKY/WX    TMP DP  RH WIND       PRES   REMARKS
ROCHESTER      CLOUDY    35  30  82 W20       29.55S WCI  24
RED WING       FLURRIES  36  30  80 NW9       29.52S
STANTON        CLOUDY    36  31  84 W13       29.54F
DODGE CENTER   CLOUDY    36  32  87 W18G25    29.55S
WINONA         CLOUDY    36  32  87 W10       29.53F
AUSTIN         CLOUDY    37  30  75 W15G26    29.58F
PRESTON        PTCLDY    33  30  87 W18G26    29.56S WCI  22
$$
ABBREVIATIONS USED IN REMARKS
   TC - TEMPERATURES IN CELSIUS
  WCI - WIND CHILL INDEX
   HX - HEAT INDEX
  VSB - VISIBILITY
$$



USA.gov is the U.S. government's official web portal to all federal, state and local government web resources and services.